Home   Weather   Pully   Past weeks

Flag for Switzerland Past Weather in Pully, Vaud, Switzerland — Yesterday and Last 2 Weeks

Now
69 °F

Mild.


Feels Like: 69 °F
Forecast: 64 / 79 °F
Wind: 2 mph from Southwest

Location: Aigle

Current Time: Jun 24, 2017 at 3:52:04 am

Latest Report: Jun 24, 2017 at 3:00 am


Visibility: N/A

Pressure: 30.06 "Hg

Humidity: 88%

Dew Point: 66 °F

Location of PullyLocation

Past Weather in Pully — Graph

°F

Pully Temperature Yesterday

Maximum temperature yesterday: 90 °F (at 4:00 pm)
Minimum temperature yesterday: 66 °F (at 6:00 am)
Average temperature yesterday: 78 °F

High & Low Weather Summary for the Past Weeks

 TemperatureHumidityPressure
High90 °F (Jun 23, 4:00 pm)100% (Jun 13, 6:00 am)30.24 "Hg (Jun 13, 6:00 am)
Low51 °F (Jun 9, 4:00 am)40% (Jun 17, 5:00 pm)29.88 "Hg (Jun 21, 6:00 pm)
Average71 °F71%30.04 "Hg
* Reported Jun 9 2:00 am — Jun 24 2:00 am, Pully. Weather by CustomWeather, © 2017

Note: Actual official high and low records may vary slightly from our data, if they occured in-between our weather recording intervals... More about our weather records

Advertising

Pully Weather History for the Previous 24 Hours

Scroll right to see more
 ConditionsComfort  
Time TempWeatherWind HumidityBarometerVisibility
2:00 am
Sat, Jun 24
76 °FMild.2 mph69%30.05 "HgN/A
1:00 am74 °FMild.1 mph75%30.05 "HgN/A
12:00 am72 °FMild.1 mph87%30.05 "HgN/A
11:00 pm
Fri, Jun 23
74 °FMild.2 mph78%30.04 "HgN/A
10:00 pm76 °FMild.2 mph77%30.03 "HgN/A
9:00 pm83 °FWarm.5 mph54%30.00 "HgN/A
8:00 pm84 °FPassing clouds.3 mph51%29.98 "Hg22 mi
7:00 pm88 °FWarm.6 mph43%29.96 "HgN/A
6:00 pm88 °FHot.8 mph42%29.96 "HgN/A
5:00 pm89 °FScattered clouds.7 mph42%29.96 "Hg22 mi
4:00 pm90 °FHot.7 mph40%29.97 "HgN/A
3:00 pm89 °FHot.8 mph44%29.98 "HgN/A
2:00 pm88 °FScattered clouds.3 mph47%30.00 "Hg22 mi
1:00 pm84 °FWarm.7 mph53%30.02 "HgN/A
12:00 pm82 °FWarm.1 mph53%30.03 "HgN/A
11:00 am80 °FPartly sunny.3 mph62%30.05 "Hg22 mi
10:00 am79 °FWarm.2 mph53%30.06 "HgN/A
9:00 am76 °FMild.1 mph57%30.06 "HgN/A
8:00 am72 °FPassing clouds.3 mph72%30.06 "Hg22 mi
7:00 am70 °FMild.2 mph74%30.05 "HgN/A
6:00 am66 °FMild.3 mph92%30.05 "HgN/A
5:00 am67 °FPassing clouds.6 mph86%30.04 "Hg12 mi
4:00 am69 °FMild.8 mph81%30.03 "HgN/A
3:00 am70 °FMild.5 mph82%30.04 "HgN/A
Weather by CustomWeather, © 2017

See weather overviewHow to use our weather pages